Vertical_Velocity
0 0 -0 -0 -1 0 -0 -2 -7 -6 -1 -4 -3 -3 -3 -1 3 1 0 0 -1 -1 -0 -0 -3 0 3 2 -1 -1 0 -1 0 1 0 -1 -4 -3 -3 -1 1 2 2 0
0 -1 -0 0 -0 0 -0 0 1 1 -5 -3 -1 2 0 -1 -0 -1 -1 -0 -1 -0 -2 -6 2 3 1 0 -1 -0 -2 1 2 0 -4 -2 -3 -2 -3 -1 -1 -2 6 1
-2 0 -2 -8 -6 -1 -1 -0 -6 -2 -12 -0 1 1 -2 -2 -3 -4 -1 -1 -1 -1 1 0 1 0 -1 -2 -1 -1 1 1 0 -1 -2 -2 -2 -2 -2 -2 -1 -1 1 -0
-2 -4 -8 -19 -0 -1 -2 -1 0 0 -0 -2 -1 -1 -0 2 -2 -1 -2 -1 -1 2 1 -1 -0 -1 -2 1 -0 -1 -1 0 -0 -0 -3 -1 -0 -1 0 -0 -0 1 1 -1
-6 -1 -11 -3 -1 -3 -7 -11 -2 -2 0 1 1 1 -2 -2 -1 1 -2 1 0 -1 -1 -1 -0 1 -0 -0 -0 -1 -1 -1 -2 -2 -0 -0 -3 -2 -1 -1 0 -2 0 1
-1 -2 -4 -11 -2 -0 -2 -11 -1 -2 -1 -2 -0 -1 -9 -2 -4 -1 2 1 -1 1 -1 -0 1 0 -1 -1 -2 -1 -1 -0 1 1 -2 -3 -2 -1 -2 -1 1 -0 2 -0
0 -2 -11 -4 -1 2 -13 -30 -1 -4 -2 -2 -4 -16 -2 -1 3 4 3 2 -0 -2 -1 -0 -0 -3 -3 -2 -0 1 1 1 -0 -1 -3 -2 -3 -3 -0 1 0 0 1 -1
-1 -2 -12 -1 -2 -10 -15 -1 -1 -2 -4 -6 2 4 0 -0 3 2 -6 -2 -1 2 0 -0 -3 -2 1 2 0 -0 -1 -1 -0 2 -2 -2 -2 -0 -0 2 2 2 0 -0
-12 -15 -3 -4 -1 1 0 1 -2 0 -1 2 5 -1 -1 -1 4 -12 5 2 2 0 0 -0 0 0 -0 0 -0 -1 -1 -1 -2 -2 -2 -2 -0 1 0 2 2 0 -1 -0
-4 -6 -4 -2 -2 -3 1 -2 1 1 3 5 1 2 1 -1 -6 -2 2 -1 0 -0 -1 -1 -1 -1 -0 -1 1 0 -2 -2 -3 -1 -2 -1 0 -0 0 1 0 -0 -0 -1
-4 -6 1 -6 -1 -1 0 3 0 1 1 3 7 6 3 3 3 0 -1 -1 -2 -1 -0 -0 -2 -0 2 -1 -2 -0 -1 -1 -2 -0 1 1 -0 -1 -1 -0 0 -0 1 -0
-10 -6 0 -7 -1 -0 -1 -2 3 4 2 3 4 2 4 -11 2 2 -2 -3 -1 0 -1 -0 -1 1 1 0 -1 -0 1 1 -3 -3 1 2 -1 -1 0 -0 1 -1 0 -0
-10 4 2 1 -2 -2 -0 2 0 1 8 3 14 4 -14 2 -2 -1 -2 -1 -1 0 -0 -2 -1 0 1 -1 1 1 -4 -2 -2 -1 2 0 1 -1 -0 2 -1 0 -1 -0
5 4 -4 0 -3 -0 2 2 4 7 4 -3 -7 -15 -3 -2 1 1 -1 -1 -0 -2 -0 -3 -0 -0 -1 0 0 -2 -2 -1 -1 -1 -2 -1 -1 0 4 0 -3 -1 2 0
2 2 2 1 1 2 5 2 -3 4 11 1 -7 8 2 -1 -1 -1 0 -0 -2 -2 -3 -2 -0 -2 -0 0 -1 -0 -1 -0 -0 3 -2 -3 -2 0 1 -2 -2 1 -0 1
-1 2 2 4 5 6 6 5 5 6 -8 -3 -6 -1 -1 0 2 0 0 -1 -2 -2 -2 -1 -3 -2 -2 -4 -4 -2 -0 3 6 -2 3 -0 -2 -1 1 -1 1 2 0 -0
3 1 6 1 2 3 -4 -3 -1 -12 -13 1 4 0 1 0 -1 1 -0 -2 -4 -2 0 -1 -1 -1 -2 -2 -1 -0 -3 -4 -1 1 1 4 -0 -1 -0 0 -1 -1 -2 2
2 3 4 7 -1 -3 2 -10 1 1 -1 -2 -2 0 -1 3 2 -0 -1 -5 2 1 3 1 -2 -3 -1 -0 0 -2 -1 1 6 -3 0 4 0 -1 -0 -2 -1 -2 -2 0
2 -2 1 -2 -6 -8 -9 -9 2 3 2 -0 -1 -0 1 -0 -0 -2 -0 -1 1 1 2 -1 -2 -2 -0 -2 -1 -1 -1 -2 -1 -2 3 1 2 -0 -1 -1 -1 -0 -0 -1
-2 -5 -7 -5 1 3 2 2 1 1 1 2 1 1 -2 -3 -2 0 3 -1 2 2 -2 -0 -1 -0 0 1 2 1 -2 -2 -0 1 2 1 0 -1 0 -0 -1 -1 -1 -1
2 3 1 -2 -2 -1 1 1 0 -1 -0 -3 -4 -3 -2 -0 1 1 1 -4 1 8 -0 1 1 -1 -1 -1 -1 -2 -1 -1 1 2 1 -0 1 1 -1 0 0 -1 -1 -1
1 2 0 0 -1 -0 -1 -1 1 2 1 1 2 -0 -1 0 3 0 7 0 -1 5 2 2 -0 -1 -1 0 -1 -2 -0 0 1 1 1 2 3 4 2 2 1 2 -1 -2
-1 1 1 1 3 2 4 5 2 0 0 1 0 0 -1 -4 4 -3 -16 3 -3 -0 -0 1 -1 -1 -1 -1 -1 1 2 6 0 -1 -1 -1 1 2 2 2 1 3 5 5
2 2 4 3 2 -0 -4 -1 0 2 0 1 2 3 0 -5 -8 5 0 -3 -4 2 -0 -0 -3 -1 -2 -3 -1 0 0 1 2 1 -1 0 -0 1 1 -1 -1 1 1 2
-1 -0 -0 -1 -2 -2 -1 -3 -2 -2 -3 -3 -3 -2 6 10 3 -7 -1 -1 -1 4 11 4 1 1 0 -1 0 0 0 2 2 -1 -1 2 -1 -1 -2 0 0 0 1 1
-1 -2 -2 -1 -1 -1 -2 -3 -4 -2 -4 -7 -1 -3 -4 -3 1 -1 -3 -1 0 -0 -0 -1 1 -1 0 -0 -0 0 1 1 0 1 1 1 1 1 -1 -0 0 2 2 1
0 0 1 1 1 -2 -3 -3 -4 -3 -0 -1 -4 1 -2 -1 -4 -3 -2 1 3 -1 2 7 1 -1 -1 -1 1 1 1 1 0 -1 0 -0 -1 -0 -1 -0 2 3 2 1
Height
1528 1529 1524 1522 1523 1528 1529 1530 1536 1528 1531 1521 1519 1519 1520 1523 1528 1531 1534 1536 1537 1539 1540 1540 1540 1540 1539 1539 1538 1536 1534 1531 1528 1524 1522 1518 1514 1509 1504 1500 1496 1494 1492 1490
1528 1531 1532 1527 1524 1525 1526 1525 1527 1525 1523 1513 1514 1516 1519 1521 1525 1528 1531 1533 1535 1536 1537 1537 1538 1538 1537 1536 1534 1532 1529 1526 1523 1521 1517 1513 1508 1503 1499 1495 1491 1489 1488 1488
1540 1539 1536 1539 1519 1518 1516 1515 1516 1523 1512 1511 1513 1513 1514 1518 1522 1525 1528 1530 1531 1533 1534 1535 1535 1534 1533 1532 1530 1527 1524 1522 1519 1516 1512 1508 1503 1498 1495 1492 1488 1487 1486 1485
1550 1548 1553 1510 1507 1507 1508 1506 1507 1507 1506 1507 1507 1509 1513 1516 1518 1521 1524 1526 1528 1529 1530 1531 1531 1531 1529 1528 1525 1522 1520 1517 1514 1510 1506 1502 1498 1494 1491 1489 1487 1486 1484 1483
1553 1551 1525 1502 1503 1505 1505 1503 1498 1501 1504 1506 1508 1511 1512 1514 1516 1519 1521 1523 1525 1526 1526 1527 1528 1527 1525 1523 1520 1517 1515 1512 1509 1505 1501 1497 1494 1491 1488 1487 1485 1483 1482 1481
1558 1553 1547 1506 1498 1498 1498 1513 1491 1494 1500 1503 1508 1518 1505 1508 1511 1514 1516 1519 1520 1522 1523 1524 1524 1523 1521 1518 1516 1513 1511 1508 1504 1501 1497 1493 1490 1488 1485 1484 1482 1481 1479 1478
1568 1556 1527 1499 1497 1498 1514 1506 1488 1492 1495 1500 1504 1499 1501 1503 1507 1511 1514 1516 1518 1520 1521 1521 1520 1518 1516 1514 1511 1509 1506 1503 1499 1496 1492 1489 1486 1484 1483 1481 1479 1478 1476 1474
1548 1556 1525 1495 1500 1505 1493 1487 1487 1489 1491 1492 1493 1495 1498 1501 1505 1507 1510 1514 1516 1517 1517 1517 1515 1514 1511 1509 1506 1503 1500 1497 1494 1491 1489 1485 1483 1481 1480 1478 1476 1475 1473 1471
1517 1509 1493 1492 1489 1487 1487 1487 1486 1485 1486 1487 1490 1493 1496 1499 1502 1507 1509 1512 1514 1514 1514 1513 1511 1508 1505 1503 1501 1498 1495 1492 1488 1486 1484 1481 1479 1477 1476 1474 1473 1471 1469 1467
1504 1489 1487 1487 1486 1485 1484 1484 1484 1484 1484 1484 1485 1490 1493 1497 1500 1506 1509 1512 1512 1511 1510 1508 1506 1504 1501 1499 1496 1492 1489 1486 1483 1481 1479 1477 1475 1473 1471 1470 1469 1467 1465 1463
1499 1487 1483 1482 1481 1480 1480 1480 1480 1480 1480 1481 1485 1488 1494 1497 1502 1502 1506 1507 1508 1507 1505 1503 1502 1500 1497 1494 1490 1486 1483 1480 1478 1476 1474 1472 1470 1469 1468 1467 1465 1462 1461 1460
1493 1478 1479 1478 1478 1477 1476 1476 1476 1476 1478 1481 1484 1488 1491 1495 1502 1503 1504 1504 1503 1502 1500 1499 1497 1495 1491 1487 1483 1480 1477 1475 1473 1471 1468 1467 1466 1465 1464 1462 1460 1457 1457 1456
1477 1477 1476 1475 1475 1474 1473 1473 1473 1476 1478 1481 1485 1486 1491 1496 1499 1500 1501 1500 1500 1498 1497 1495 1492 1489 1485 1481 1477 1475 1472 1470 1468 1466 1464 1463 1461 1460 1459 1458 1456 1454 1453 1452
1474 1474 1472 1472 1471 1470 1469 1470 1472 1475 1477 1481 1486 1489 1495 1496 1496 1496 1496 1496 1495 1494 1492 1490 1486 1482 1479 1475 1472 1470 1468 1466 1463 1461 1459 1458 1456 1455 1454 1453 1451 1450 1450 1448
1470 1470 1469 1468 1468 1468 1469 1471 1475 1478 1482 1480 1488 1493 1494 1494 1493 1492 1492 1491 1491 1489 1487 1485 1480 1476 1473 1470 1468 1466 1464 1461 1458 1456 1454 1452 1450 1450 1449 1448 1446 1445 1445 1444
1470 1468 1468 1468 1469 1470 1471 1474 1474 1478 1482 1488 1491 1492 1492 1491 1489 1489 1488 1487 1487 1486 1484 1479 1475 1471 1468 1466 1463 1461 1458 1456 1453 1450 1448 1446 1445 1444 1443 1442 1441 1440 1439 1439
1468 1468 1468 1469 1472 1474 1476 1480 1479 1481 1485 1488 1490 1489 1488 1488 1488 1485 1484 1483 1482 1481 1478 1473 1469 1466 1463 1461 1458 1454 1452 1449 1447 1444 1442 1440 1439 1438 1437 1436 1435 1435 1434 1434
1470 1470 1472 1473 1475 1480 1481 1484 1486 1486 1487 1487 1487 1487 1487 1486 1484 1482 1480 1480 1478 1475 1473 1469 1465 1462 1459 1456 1452 1448 1445 1442 1440 1437 1434 1433 1432 1431 1430 1429 1428 1428 1428 1428
1477 1478 1481 1482 1483 1484 1485 1487 1487 1486 1485 1484 1484 1484 1484 1483 1481 1478 1476 1475 1472 1469 1466 1463 1460 1457 1453 1451 1447 1443 1440 1436 1433 1430 1427 1426 1426 1426 1424 1423 1422 1422 1422 1422
1484 1485 1486 1488 1489 1488 1487 1486 1485 1484 1483 1482 1481 1481 1479 1478 1476 1473 1470 1468 1467 1464 1460 1457 1454 1451 1447 1444 1441 1437 1434 1430 1427 1424 1422 1420 1420 1420 1419 1418 1417 1416 1415 1414
1490 1489 1488 1487 1487 1487 1486 1486 1485 1484 1483 1481 1479 1477 1475 1473 1471 1468 1465 1461 1459 1458 1453 1450 1447 1443 1440 1437 1434 1431 1427 1424 1421 1418 1416 1414 1413 1413 1412 1411 1410 1409 1408 1406
1492 1491 1490 1490 1488 1487 1486 1485 1484 1483 1482 1480 1477 1474 1471 1468 1465 1462 1459 1456 1452 1449 1445 1443 1440 1437 1433 1430 1427 1424 1421 1418 1415 1412 1410 1408 1407 1405 1404 1403 1401 1400 1399 1398
1492 1491 1489 1489 1487 1486 1486 1484 1483 1481 1479 1476 1473 1470 1467 1463 1459 1455 1450 1448 1444 1441 1439 1436 1433 1429 1426 1423 1420 1417 1414 1411 1409 1406 1403 1401 1399 1397 1395 1394 1392 1390 1389 1388
1491 1490 1489 1488 1487 1486 1484 1482 1480 1478 1475 1471 1468 1466 1462 1456 1450 1449 1445 1440 1438 1435 1431 1428 1426 1423 1420 1416 1413 1410 1408 1405 1402 1399 1397 1394 1392 1390 1387 1385 1383 1381 1379 1377
1490 1489 1488 1487 1486 1484 1481 1477 1474 1471 1467 1463 1459 1457 1455 1451 1446 1440 1436 1433 1430 1427 1424 1422 1420 1417 1414 1410 1407 1404 1401 1398 1395 1392 1390 1387 1385 1382 1380 1378 1375 1373 1370 1368
1489 1488 1487 1485 1483 1480 1476 1472 1469 1464 1460 1455 1451 1448 1444 1441 1438 1434 1430 1427 1424 1421 1418 1416 1414 1411 1408 1404 1401 1398 1395 1391 1388 1385 1382 1379 1377 1375 1372 1370 1367 1365 1362 1361
1487 1486 1483 1481 1478 1475 1472 1468 1464 1459 1456 1452 1446 1442 1438 1434 1430 1427 1424 1420 1417 1415 1412 1409 1407 1405 1402 1399 1396 1393 1390 1386 1383 1379 1376 1372 1369 1366 1365 1363 1360 1358 1356 1355